Location: Unspecified
(0.0000°N, 0.0000°E)
Time: 16:22:47
(UTC+00:00)

Vanguard 1 Rocket - Visible Passes

Search period start: 21 January 2018 00:00
Search period end: 31 January 2018 00:00
Orbit: 656 x 4222 km, 34.3° (Epoch: 20 January)

Date Brightness Start Highest point End Pass type
(mag) Time Alt. Az. Time Alt. Az. Time Alt. Az.
21 Jan 11.1 00:10:39 10° SW 00:33:49 40° SSE 00:54:17 10° E visible
21 Jan 10.1 02:42:07 10° SW 03:08:37 85° SE 03:24:58 10° NE visible
21 Jan 10.0 05:20:01 10° WSW 05:38:27 36° NW 05:49:15 10° NNE visible
21 Jan 11.5 20:27:16 10° SSW 20:36:49 17° S 20:49:18 10° SE visible
21 Jan 11.4 22:57:20 10° SSW 23:16:42 30° SSE 23:37:15 10° E visible
22 Jan 10.5 01:27:12 10° SW 01:53:27 64° SE 02:12:36 10° ENE visible
22 Jan 9.9 04:01:35 10° WSW 04:25:25 58° NW 04:39:11 10° NE visible
22 Jan 11.4 19:13:47 10° SW 19:20:38 15° S 19:29:48 10° SSE visible
22 Jan 11.5 21:44:34 10° SSW 21:59:13 22° SSE 22:17:06 10° ESE visible
23 Jan 10.9 00:13:19 10° SW 00:37:24 48° SSE 00:58:40 10° ENE visible
23 Jan 10.0 02:44:57 10° SW 03:11:28 82° NW 03:28:11 10° NE visible
23 Jan 10.3 05:24:45 10° W 05:41:29 29° NW 05:51:56 10° NNE visible
23 Jan 11.5 20:32:06 10° SSW 20:41:56 16° SSE 20:54:36 10° SE visible
23 Jan 11.2 23:00:17 10° SSW 23:20:46 35° SSE 23:42:27 10° E visible
24 Jan 10.3 01:29:51 10° SW 01:58:06 74° ESE 02:16:08 10° ENE visible
24 Jan 10.1 04:15:50 28° W 04:28:13 47° NW 04:42:04 10° NNE visible
24 Jan 11.4 19:19:41 10° SSW 19:25:34 13° S 19:32:57 10° SSE visible
24 Jan 11.4 21:47:57 10° SSW 22:03:48 25° SSE 22:16:33 18° ESE visible
25 Jan 10.9 00:15:57 10° SW 00:54:10 32° E 01:02:40 10° ENE visible
25 Jan 10.0 02:48:03 10° WSW 03:14:13 69° NW 03:31:14 10° NE visible
25 Jan 10.5 05:30:09 10° W 05:44:46 23° NW 05:54:31 10° N visible
25 Jan 11.4 20:36:13 10° SSW 20:46:54 18° SSE 21:00:44 10° SE visible
25 Jan 11.0 23:03:05 10° SSW 23:49:05 - E 23:23:53 42° SSE visible
26 Jan 10.4 01:32:37 10° SW 02:06:33 58° NE 02:19:25 10° NE visible
26 Jan 10.3 04:24:01 33° WNW 04:31:08 39° NW 04:44:51 10° NNE visible
26 Jan 11.4 19:25:07 10° SSW 19:30:33 12° S 19:37:09 10° SSE visible
26 Jan 11.2 21:51:00 10° SSW 22:07:59 30° SSE 22:14:43 27° SE visible
27 Jan 10.9 00:18:38 10° SW 01:00:51 25° ENE 01:06:20 10° ENE visible
27 Jan 10.2 03:18:16 58° NNW 03:18:16 58° NNW 03:34:09 10° NE visible
27 Jan 10.6 05:36:17 10° WNW 05:48:22 18° NW 05:57:00 10° N visible
27 Jan 11.3 20:39:43 10° SSW 20:51:34 20° SSE 21:05:53 11° ESE visible
27 Jan 10.8 23:05:48 10° SW 23:54:47 - ENE 23:23:01 47° SSE visible
28 Jan 10.5 01:35:36 10° SW 02:12:11 46° NE 02:22:31 10° NE visible
28 Jan 10.5 04:29:34 29° WNW 04:34:16 32° NW 04:47:34 10° NNE visible
28 Jan 11.4 19:29:29 10° S 19:35:29 13° SSE 19:42:50 10° SE visible
28 Jan 11.0 21:53:52 10° SSW 22:11:44 35° SSE 22:14:26 34° SE visible
29 Jan 11.1 00:21:25 10° SW 01:05:50 21° ENE 01:09:43 10° ENE visible
29 Jan 10.4 03:23:11 46° NNW 03:23:11 46° NNW 03:36:59 10° NNE visible
29 Jan 10.8 05:43:07 10° WNW 05:52:21 15° NNW 05:59:26 10° N visible
29 Jan 11.2 20:42:48 10° SSW 20:55:52 23° SSE 21:06:01 18° ESE visible
29 Jan 10.8 23:08:31 10° SW 23:59:16 - ENE 23:23:11 48° S visible
30 Jan 10.7 01:38:49 10° WSW 02:16:37 38° NNE 02:25:27 10° NE visible
30 Jan 10.7 04:33:57 25° NW 04:37:41 26° NW 04:50:17 10° NNE visible
30 Jan 11.3 19:32:54 10° S 19:40:13 14° SSE 19:49:32 10° SE visible
30 Jan 10.8 21:56:39 10° SSW 22:14:56 42° SE 22:14:56 42° SE visible
